カタログに戻る

HEBI-1

運用中科学SSO
NORAD 56154·PAYLOAD·🇨🇳 China
この衛星名は、まだ公式ソースで確認されていません。

打ち上げ Mar 30, 2023 から Taiyuan Satellite Launch Center

Loading…

次のパス (今後24時間)

TLE

最新Source: Space-Track

元期: Sep 14, 2026, 08:41 UTC

1 56154U 23047B   26257.36188135  .00002884  00000-0  16109-3 0  9996
2 56154  97.5007  83.2187 0001563  94.1455 265.9956 15.14308826191295

AllMySatでHEBI-1をリアルタイム追跡

Download on the App Store